Location: Unspecified
(0.0000°N, 0.0000°E)
Time: 18:30:01
(UTC+00:00)

Vanguard 3 - Pass Details

Date: 26 September 2023
Orbit: 507 x 3241 km, 33.3° (Epoch: 29 November)

Event Time Altitude Azimuth Distance (km) Brightness Sun altitude
Rises 18:03:00 0° 264° (W) 6,793 14.9 -2.9°
Reaches altitude 10° 18:09:33 10° 277° (W) 5,359 13.2 -4.6°
Maximum altitude 18:19:52 22° 321° (NW) 3,556 10.9 -7.1°
Drops below altitude 10° 18:27:11 10° 8° (N) 3,643 10.4 -9.0°
Sets 18:30:35 0° 24° (NNE) 4,213 10.6 -9.8°
